KQA204 HKJK-VABB

Flight info

Callsign KQA204
Flight time 5h 33m
Altitude 35000
Route ATUDU1D IBROM UL303 KESOM UM306 AMPEX/N0464F370 UM306 ORLID G450 DARMI KETOR2A
Aircraft B738/M-SDE2E3FGHIRWXY/LB1

Departure

Time 2026-05-06 20:29
Airport Jomo Kenyatta International Airport (HKJK)

Arrival

Time 2026-05-07 02:03
Airport Chhatrapati Shivaji Maharaj International Airport (VABB)
Time Latitude Longitude Altitude Speed Heading
2026-05-06 19:57 -1.33278 36.92484 5321 ft 0 kts 289°
2026-05-06 20:17 -1.33282 36.92495 5316 ft 4 kts 283°
2026-05-06 20:17 -1.33283 36.92520 5319 ft 4 kts 244°
2026-05-06 20:17 -1.33270 36.92533 5313 ft 2 kts 172°
2026-05-06 20:18 -1.33268 36.92532 5313 ft 0 kts 171°
2026-05-06 20:21 -1.33267 36.92532 5313 ft 0 kts 178°
2026-05-06 20:22 -1.33269 36.92532 5313 ft 1 kts 177°
2026-05-06 20:23 -1.33272 36.92532 5319 ft 0 kts 176°
2026-05-06 20:23 -1.33283 36.92533 5323 ft 4 kts 172°
2026-05-06 20:23 -1.33326 36.92539 5320 ft 9 kts 178°
2026-05-06 20:23 -1.33395 36.92510 5319 ft 14 kts 229°
2026-05-06 20:24 -1.33443 36.92416 5315 ft 16 kts 262°
2026-05-06 20:24 -1.33468 36.92330 5321 ft 12 kts 237°
2026-05-06 20:24 -1.33515 36.92262 5323 ft 11 kts 234°
2026-05-06 20:24 -1.33511 36.92192 5319 ft 11 kts 316°
2026-05-06 20:25 -1.33450 36.92148 5320 ft 11 kts 324°
2026-05-06 20:25 -1.33389 36.92105 5317 ft 10 kts 324°
2026-05-06 20:25 -1.33331 36.92063 5319 ft 10 kts 322°
2026-05-06 20:25 -1.33277 36.92021 5319 ft 10 kts 324°
2026-05-06 20:26 -1.33221 36.91981 5320 ft 10 kts 325°
2026-05-06 20:26 -1.33167 36.91944 5317 ft 9 kts 325°
2026-05-06 20:26 -1.33115 36.91906 5323 ft 9 kts 324°
2026-05-06 20:26 -1.33064 36.91870 5321 ft 9 kts 324°
2026-05-06 20:27 -1.33015 36.91834 5332 ft 9 kts 324°
2026-05-06 20:27 -1.32968 36.91799 5336 ft 8 kts 324°
2026-05-06 20:27 -1.32921 36.91766 5337 ft 9 kts 324°
2026-05-06 20:27 -1.32867 36.91727 5336 ft 10 kts 324°
2026-05-06 20:28 -1.32805 36.91683 5338 ft 11 kts 324°
2026-05-06 20:28 -1.32741 36.91670 5337 ft 10 kts 31°
2026-05-06 20:28 -1.32691 36.91730 5332 ft 16 kts 53°
2026-05-06 20:28 -1.32575 36.91892 5321 ft 46 kts 54°
2026-05-06 20:29 -1.32257 36.92325 5317 ft 107 kts 54°
2026-05-06 20:29 -1.31708 36.93073 5306 ft 158 kts 53°
2026-05-06 20:29 -1.30986 36.94081 5393 ft 194 kts 57°
2026-05-06 20:29 -1.30232 36.95194 6112 ft 193 kts 58°
2026-05-06 20:30 -1.29729 36.96488 6427 ft 215 kts 84°
2026-05-06 20:30 -1.29641 36.99535 7473 ft 219 kts 88°
2026-05-06 20:30 -1.29483 37.01104 7727 ft 236 kts 84°
2026-05-06 20:31 -1.29286 37.02796 7976 ft 251 kts 85°
2026-05-06 20:31 -1.29118 37.04527 8604 ft 248 kts 85°
2026-05-06 20:31 -1.28932 37.06292 8856 ft 270 kts 84°
2026-05-06 20:31 -1.28688 37.08269 8901 ft 296 kts 83°
2026-05-06 20:32 -1.28432 37.10287 9779 ft 289 kts 83°
2026-05-06 20:32 -1.28193 37.12257 10465 ft 292 kts 83°
2026-05-06 20:32 -1.27958 37.14333 10696 ft 312 kts 83°
2026-05-06 20:32 -1.27578 37.16533 10847 ft 332 kts 75°
2026-05-06 20:33 -1.26870 37.18793 10995 ft 351 kts 71°
2026-05-06 20:33 -1.26023 37.21146 11142 ft 367 kts 70°
2026-05-06 20:33 -1.25123 37.23570 11526 ft 375 kts 69°
2026-05-06 20:33 -1.24217 37.26024 12075 ft 377 kts 70°
2026-05-06 20:34 -1.23323 37.28485 12650 ft 378 kts 70°
2026-05-06 20:34 -1.22434 37.30965 13187 ft 381 kts 70°
2026-05-06 20:34 -1.21545 37.33476 13666 ft 385 kts 70°
2026-05-06 20:34 -1.20672 37.35959 14274 ft 382 kts 70°
2026-05-06 20:35 -1.19795 37.38473 14706 ft 386 kts 71°
2026-05-06 20:35 -1.18926 37.41027 15096 ft 390 kts 70°
2026-05-06 20:35 -1.18008 37.43588 15497 ft 393 kts 70°
2026-05-06 20:35 -1.17080 37.46167 15926 ft 395 kts 70°
2026-05-06 20:36 -1.16168 37.48759 16361 ft 397 kts 70°
2026-05-06 20:36 -1.15258 37.51385 16709 ft 402 kts 70°
2026-05-06 20:36 -1.14353 37.54042 17108 ft 405 kts 70°
2026-05-06 20:36 -1.13442 37.56702 17545 ft 406 kts 70°
2026-05-06 20:37 -1.12524 37.59350 17942 ft 409 kts 70°
2026-05-06 20:37 -1.11589 37.62036 18329 ft 411 kts 70°
2026-05-06 20:37 -1.10644 37.64743 18666 ft 414 kts 70°
2026-05-06 20:37 -1.09697 37.67457 18990 ft 416 kts 70°
2026-05-06 20:38 -1.08743 37.70193 19313 ft 418 kts 70°
2026-05-06 20:38 -1.07785 37.72942 19630 ft 420 kts 70°
2026-05-06 20:38 -1.06822 37.75704 19961 ft 421 kts 70°
2026-05-06 20:38 -1.05858 37.78471 20278 ft 424 kts 70°
2026-05-06 20:39 -1.04887 37.81257 20579 ft 426 kts 70°
2026-05-06 20:39 -1.03924 37.84021 20873 ft 428 kts 70°
2026-05-06 20:39 -1.02943 37.86837 21175 ft 430 kts 70°
2026-05-06 20:39 -1.01957 37.89665 21456 ft 432 kts 70°
2026-05-06 20:40 -1.00971 37.92495 21724 ft 434 kts 70°
2026-05-06 20:40 -0.99977 37.95349 21999 ft 436 kts 70°
2026-05-06 20:40 -0.98977 37.98218 22287 ft 438 kts 70°
2026-05-06 20:40 -0.97976 38.01092 22618 ft 438 kts 69°
2026-05-06 20:41 -0.96985 38.03935 22867 ft 440 kts 70°
2026-05-06 20:41 -0.95977 38.06828 23079 ft 443 kts 69°
2026-05-06 20:41 -0.94962 38.09740 23316 ft 445 kts 70°
2026-05-06 20:41 -0.93941 38.12666 23565 ft 446 kts 70°
2026-05-06 20:42 -0.92921 38.15594 23776 ft 448 kts 70°
2026-05-06 20:42 -0.91893 38.18544 23977 ft 450 kts 70°
2026-05-06 20:42 -0.90861 38.21501 24150 ft 452 kts 70°
2026-05-06 20:42 -0.89820 38.24478 24281 ft 455 kts 69°
2026-05-06 20:43 -0.88780 38.27462 24482 ft 456 kts 70°
2026-05-06 20:43 -0.87736 38.30460 24689 ft 457 kts 69°
2026-05-06 20:43 -0.86705 38.33423 24884 ft 458 kts 70°
2026-05-06 20:43 -0.85655 38.36438 25054 ft 460 kts 69°
2026-05-06 20:44 -0.84604 38.39453 25231 ft 461 kts 70°
2026-05-06 20:44 -0.83547 38.42486 25403 ft 463 kts 69°
2026-05-06 20:44 -0.82487 38.45526 25580 ft 464 kts 70°
2026-05-06 20:44 -0.81424 38.48577 25739 ft 465 kts 69°
2026-05-06 20:45 -0.80357 38.51636 25902 ft 467 kts 70°
2026-05-06 20:45 -0.79290 38.54697 26074 ft 468 kts 69°
2026-05-06 20:45 -0.78232 38.57732 26238 ft 469 kts 70°
2026-05-06 20:45 -0.77156 38.60817 26400 ft 471 kts 70°
2026-05-06 20:46 -0.76077 38.63910 26561 ft 472 kts 70°
2026-05-06 20:46 -0.74999 38.67004 26698 ft 473 kts 70°
2026-05-06 20:46 -0.73913 38.70116 26848 ft 475 kts 70°
2026-05-06 20:46 -0.72825 38.73237 26996 ft 476 kts 70°
2026-05-06 20:47 -0.71734 38.76365 27142 ft 477 kts 70°
2026-05-06 20:47 -0.70644 38.79493 27276 ft 478 kts 70°
2026-05-06 20:47 -0.69547 38.82637 27415 ft 480 kts 70°
2026-05-06 20:47 -0.68448 38.85789 27549 ft 481 kts 70°
2026-05-06 20:48 -0.67360 38.88908 27687 ft 482 kts 70°
2026-05-06 20:48 -0.66255 38.92076 27818 ft 483 kts 70°
2026-05-06 20:48 -0.65148 38.95243 27933 ft 484 kts 70°
2026-05-06 20:48 -0.64015 38.98419 28051 ft 486 kts 70°
2026-05-06 20:49 -0.62890 39.01606 28175 ft 487 kts 70°
2026-05-06 20:49 -0.61780 39.04805 28333 ft 487 kts 70°
2026-05-06 20:49 -0.60679 39.07994 28546 ft 486 kts 70°
2026-05-06 20:49 -0.59578 39.11186 28746 ft 486 kts 71°
2026-05-06 20:50 -0.58499 39.14386 28877 ft 486 kts 71°
2026-05-06 20:50 -0.56282 39.20742 29147 ft 488 kts 70°
2026-05-06 20:50 -0.55155 39.23940 29370 ft 487 kts 70°
2026-05-06 20:51 -0.54031 39.27130 29614 ft 486 kts 70°
2026-05-06 20:51 -0.52942 39.30330 29786 ft 487 kts 71°
2026-05-06 20:51 -0.51855 39.33536 29936 ft 487 kts 70°
2026-05-06 20:51 -0.50731 39.36725 30089 ft 488 kts 70°
2026-05-06 20:52 -0.49598 39.39913 30317 ft 485 kts 70°
2026-05-06 20:52 -0.48489 39.43044 30567 ft 483 kts 70°
2026-05-06 20:52 -0.47378 39.46198 30802 ft 482 kts 70°
2026-05-06 20:52 -0.46271 39.49359 30966 ft 482 kts 70°
2026-05-06 20:53 -0.45167 39.52521 31148 ft 482 kts 70°
2026-05-06 20:53 -0.44065 39.55681 31340 ft 481 kts 70°
2026-05-06 20:53 -0.42966 39.58834 31570 ft 480 kts 70°
2026-05-06 20:53 -0.41872 39.61971 31782 ft 479 kts 70°
2026-05-06 20:54 -0.40778 39.65110 31998 ft 478 kts 70°
2026-05-06 20:54 -0.39684 39.68246 32188 ft 477 kts 70°
2026-05-06 20:54 -0.38606 39.71335 32414 ft 477 kts 70°
2026-05-06 20:54 -0.37515 39.74461 32624 ft 476 kts 70°
2026-05-06 20:55 -0.36430 39.77571 32840 ft 475 kts 70°
2026-05-06 20:55 -0.35344 39.80686 33040 ft 474 kts 70°
2026-05-06 20:55 -0.34258 39.83799 33223 ft 474 kts 70°
2026-05-06 20:55 -0.33171 39.86913 33402 ft 474 kts 70°
2026-05-06 20:56 -0.32086 39.90014 33617 ft 473 kts 69°
2026-05-06 20:56 -0.30908 39.93084 33834 ft 472 kts 67°
2026-05-06 20:56 -0.29651 39.96113 34022 ft 472 kts 66°
2026-05-06 20:56 -0.28379 39.99087 34178 ft 471 kts 66°
2026-05-06 20:57 -0.27072 40.02133 34307 ft 472 kts 66°
2026-05-06 20:57 -0.25802 40.05115 34454 ft 473 kts 66°
2026-05-06 20:57 -0.24527 40.08145 34570 ft 473 kts 66°
2026-05-06 20:57 -0.23255 40.11179 34737 ft 473 kts 66°
2026-05-06 20:58 -0.21991 40.14205 34878 ft 473 kts 67°
2026-05-06 20:58 -0.19530 40.20310 34937 ft 474 kts 68°
2026-05-06 20:59 -0.16911 40.26351 34939 ft 474 kts 66°
2026-05-06 20:59 -0.14374 40.32395 34942 ft 475 kts 67°
2026-05-06 21:00 -0.11859 40.38501 34941 ft 475 kts 67°
2026-05-06 21:00 -0.09334 40.44596 34939 ft 475 kts 67°
2026-05-06 21:01 -0.06803 40.50695 34948 ft 475 kts 68°
2026-05-06 21:01 -0.04265 40.56725 34933 ft 474 kts 66°
2026-05-06 21:02 -0.01713 40.62796 34934 ft 473 kts 67°
2026-05-06 21:02 0.00779 40.68867 34931 ft 472 kts 67°
2026-05-06 21:03 0.03293 40.74924 34936 ft 471 kts 67°
2026-05-06 21:03 0.05776 40.80971 34938 ft 470 kts 68°
2026-05-06 21:04 0.08095 40.87039 34937 ft 470 kts 69°
2026-05-06 21:04 0.10418 40.93137 34941 ft 470 kts 69°
2026-05-06 21:05 0.12764 40.99229 34932 ft 469 kts 69°
2026-05-06 21:05 0.15322 41.05221 34932 ft 469 kts 65°
2026-05-06 21:06 0.18057 41.11093 34938 ft 469 kts 64°
2026-05-06 21:06 0.20808 41.16999 34936 ft 469 kts 65°
2026-05-06 21:07 0.23537 41.22928 34933 ft 469 kts 65°
2026-05-06 21:07 0.26248 41.28859 34928 ft 470 kts 65°
2026-05-06 21:08 0.28961 41.34803 34936 ft 470 kts 65°
2026-05-06 21:08 0.31654 41.40700 34937 ft 470 kts 65°
2026-05-06 21:09 0.34369 41.46644 34927 ft 470 kts 65°
2026-05-06 21:09 0.37083 41.52586 34928 ft 470 kts 65°
2026-05-06 21:10 0.39792 41.58515 34928 ft 469 kts 65°
2026-05-06 21:10 0.42483 41.64406 34927 ft 469 kts 65°
2026-05-06 21:11 0.45184 41.70320 34927 ft 468 kts 65°
2026-05-06 21:11 0.47886 41.76234 34926 ft 467 kts 65°
2026-05-06 21:12 0.50580 41.82131 34931 ft 466 kts 65°
2026-05-06 21:12 0.53255 41.87989 34924 ft 466 kts 65°
2026-05-06 21:13 0.55942 41.93871 34929 ft 465 kts 65°
2026-05-06 21:13 0.58629 41.99755 34927 ft 465 kts 65°
2026-05-06 21:14 0.61311 42.05628 34927 ft 465 kts 65°
2026-05-06 21:14 0.63979 42.11468 34924 ft 465 kts 65°
2026-05-06 21:15 0.66661 42.17342 34923 ft 465 kts 65°
2026-05-06 21:15 0.69348 42.23227 34924 ft 465 kts 65°
2026-05-06 21:16 0.72035 42.29110 34924 ft 466 kts 65°
2026-05-06 21:16 0.74710 42.34968 34924 ft 467 kts 65°
2026-05-06 21:17 0.77403 42.40866 34926 ft 467 kts 65°
2026-05-06 21:17 0.80103 42.46779 34922 ft 468 kts 65°
2026-05-06 21:18 0.82806 42.52699 34919 ft 468 kts 65°
2026-05-06 21:18 0.85506 42.58613 34919 ft 468 kts 65°
2026-05-06 21:19 0.88193 42.64500 34925 ft 468 kts 65°
2026-05-06 21:19 0.90896 42.70419 34921 ft 469 kts 65°
2026-05-06 21:20 0.93598 42.76338 34920 ft 468 kts 65°
2026-05-06 21:20 0.96302 42.82263 34920 ft 468 kts 65°
2026-05-06 21:21 0.99005 42.88184 34916 ft 468 kts 65°
2026-05-06 21:21 1.01684 42.94055 34919 ft 468 kts 65°
2026-05-06 21:22 1.04383 42.99968 34923 ft 467 kts 65°
2026-05-06 21:22 1.07077 43.05872 34920 ft 467 kts 65°
2026-05-06 21:23 1.09772 43.11778 34917 ft 467 kts 65°
2026-05-06 21:23 1.12460 43.17670 34912 ft 466 kts 65°
2026-05-06 21:24 1.15135 43.23532 34919 ft 466 kts 66°
2026-05-06 21:24 1.17822 43.29423 34921 ft 466 kts 66°
2026-05-06 21:25 1.20514 43.35324 34914 ft 466 kts 66°
2026-05-06 21:25 1.23203 43.41217 34917 ft 466 kts 66°
2026-05-06 21:26 1.25876 43.47081 34914 ft 466 kts 66°
2026-05-06 21:26 1.28565 43.52976 34912 ft 466 kts 66°
2026-05-06 21:27 1.31254 43.58880 34918 ft 466 kts 66°
2026-05-06 21:27 1.33757 43.64864 34917 ft 466 kts 69°
2026-05-06 21:28 1.36161 43.70877 34912 ft 466 kts 69°
2026-05-06 21:28 1.38564 43.76844 34914 ft 466 kts 68°
2026-05-06 21:29 1.40974 43.82867 34912 ft 466 kts 69°
2026-05-06 21:29 1.43412 43.88868 34907 ft 467 kts 68°
2026-05-06 21:30 1.45892 43.94866 34909 ft 467 kts 68°
2026-05-06 21:30 1.48356 44.00864 34912 ft 467 kts 68°
2026-05-06 21:31 1.50798 44.06840 34911 ft 467 kts 69°
2026-05-06 21:31 1.53250 44.12854 34906 ft 468 kts 69°
2026-05-06 21:32 1.55706 44.18878 34913 ft 468 kts 69°
2026-05-06 21:32 1.59374 44.27870 34904 ft 468 kts 69°
2026-05-06 21:33 1.61831 44.33897 34903 ft 468 kts 69°
2026-05-06 21:33 1.64285 44.39915 34904 ft 468 kts 69°
2026-05-06 21:34 1.66753 44.45938 34897 ft 468 kts 69°
2026-05-06 21:34 1.69184 44.51917 34903 ft 468 kts 69°
2026-05-06 21:35 1.71637 44.57945 34901 ft 468 kts 69°
2026-05-06 21:35 1.74093 44.63973 34903 ft 468 kts 69°
2026-05-06 21:36 1.76546 44.69993 34899 ft 468 kts 69°
2026-05-06 21:36 1.79003 44.76022 34899 ft 468 kts 69°
2026-05-06 21:37 1.81440 44.82003 34899 ft 468 kts 69°
2026-05-06 21:37 1.83893 44.88023 34896 ft 468 kts 69°
2026-05-06 21:38 1.86349 44.94052 34899 ft 468 kts 69°
2026-05-06 21:38 1.88805 45.00081 34901 ft 468 kts 69°
2026-05-06 21:39 1.91241 45.06063 34896 ft 468 kts 69°
2026-05-06 21:39 1.93697 45.12093 34898 ft 468 kts 69°
2026-05-06 21:40 1.96149 45.18116 34896 ft 468 kts 69°
2026-05-06 21:40 1.98604 45.24148 34895 ft 468 kts 69°
2026-05-06 21:41 2.01146 45.30085 34882 ft 469 kts 62°
2026-05-06 21:41 2.04651 45.35572 34891 ft 469 kts 57°
2026-05-06 21:42 2.08280 45.40985 34894 ft 468 kts 57°
2026-05-06 21:42 2.11879 45.46409 34889 ft 468 kts 58°
2026-05-06 21:43 2.15440 45.51839 34889 ft 467 kts 58°
2026-05-06 21:43 2.18968 45.57240 34892 ft 467 kts 58°
2026-05-06 21:44 2.22513 45.62663 34899 ft 466 kts 58°
2026-05-06 21:44 2.26060 45.68100 34895 ft 467 kts 58°
2026-05-06 21:45 2.29607 45.73535 34892 ft 467 kts 58°
2026-05-06 21:45 2.33141 45.78948 34893 ft 468 kts 58°
2026-05-06 21:46 2.36701 45.84399 34891 ft 469 kts 58°
2026-05-06 21:46 2.40270 45.89865 34889 ft 469 kts 58°
2026-05-06 21:47 2.43837 45.95330 34891 ft 470 kts 58°
2026-05-06 21:47 2.47389 46.00771 34892 ft 470 kts 58°
2026-05-06 21:48 2.50956 46.06250 34888 ft 470 kts 59°
2026-05-06 21:48 2.54527 46.11737 34880 ft 471 kts 58°
2026-05-06 21:49 2.58114 46.17209 34890 ft 471 kts 58°
2026-05-06 21:49 2.61673 46.22657 34887 ft 471 kts 58°
2026-05-06 21:50 2.65247 46.28137 34887 ft 471 kts 58°
2026-05-06 21:50 2.68825 46.33624 34885 ft 471 kts 58°
2026-05-06 21:51 2.72398 46.39104 34887 ft 471 kts 58°
2026-05-06 21:51 2.75929 46.44616 34889 ft 470 kts 59°
2026-05-06 21:52 2.79488 46.50048 34880 ft 470 kts 57°
2026-05-06 21:52 2.83126 46.55489 34879 ft 470 kts 58°
2026-05-06 21:53 2.86690 46.60978 34880 ft 470 kts 59°
2026-05-06 21:53 2.90245 46.66466 34880 ft 470 kts 58°
2026-05-06 21:54 2.93789 46.71918 34880 ft 471 kts 58°
2026-05-06 21:54 2.97361 46.77402 34876 ft 471 kts 58°
2026-05-06 21:55 3.00940 46.82895 34874 ft 471 kts 58°
2026-05-06 21:55 3.04515 46.88382 34873 ft 471 kts 58°
2026-05-06 21:56 3.07490 46.92949 34871 ft 471 kts 58°
2026-05-06 21:56 3.11645 46.99330 34870 ft 471 kts 58°
2026-05-06 21:57 3.14619 47.03898 34871 ft 471 kts 58°
2026-05-06 21:57 3.18197 47.09394 34871 ft 471 kts 58°
2026-05-06 21:58 3.21769 47.14882 34869 ft 471 kts 58°
2026-05-06 21:58 3.25345 47.20376 34871 ft 471 kts 58°
2026-05-06 21:59 3.28914 47.25860 34868 ft 470 kts 59°
2026-05-06 21:59 3.32462 47.31313 34868 ft 470 kts 58°
2026-05-06 22:00 3.36025 47.36791 34870 ft 470 kts 58°
2026-05-06 22:00 3.39589 47.42270 34870 ft 469 kts 59°
2026-05-06 22:01 3.43145 47.47739 34862 ft 469 kts 59°
2026-05-06 22:01 3.46680 47.53175 34864 ft 469 kts 59°
2026-05-06 22:02 3.50231 47.58637 34860 ft 468 kts 59°
2026-05-06 22:02 3.53782 47.64103 34866 ft 468 kts 59°
2026-05-06 22:03 3.57329 47.69556 34852 ft 467 kts 60°
2026-05-06 22:03 3.60892 47.74996 34863 ft 467 kts 58°
2026-05-06 22:04 3.64421 47.80391 34857 ft 466 kts 59°
2026-05-06 22:04 3.67961 47.85839 34847 ft 467 kts 59°
2026-05-06 22:05 3.71478 47.91302 34855 ft 466 kts 59°
2026-05-06 22:05 3.74982 47.96764 34857 ft 466 kts 59°
2026-05-06 22:06 3.78482 48.02194 34853 ft 467 kts 58°
2026-05-06 22:06 3.82042 48.07638 34856 ft 468 kts 58°
2026-05-06 22:07 3.85556 48.13130 34844 ft 469 kts 58°
2026-05-06 22:07 3.89190 48.18549 34859 ft 469 kts 58°
2026-05-06 22:08 3.92716 48.24005 34853 ft 470 kts 59°
2026-05-06 22:08 3.96254 48.29505 34857 ft 470 kts 59°
2026-05-06 22:09 3.99761 48.35040 34857 ft 470 kts 60°
2026-05-06 22:09 4.03329 48.40537 34855 ft 471 kts 58°
2026-05-06 22:10 4.06921 48.45985 34851 ft 472 kts 59°
2026-05-06 22:10 4.10478 48.51498 34851 ft 472 kts 59°
2026-05-06 22:11 4.14064 48.57005 34848 ft 472 kts 58°
2026-05-06 22:11 4.17637 48.62510 34845 ft 472 kts 58°
2026-05-06 22:12 4.21209 48.68025 34845 ft 471 kts 59°
2026-05-06 22:12 4.24754 48.73491 34847 ft 471 kts 58°
2026-05-06 22:13 4.28324 48.78999 34845 ft 471 kts 58°
2026-05-06 22:13 4.31892 48.84505 34847 ft 471 kts 58°
2026-05-06 22:14 4.35451 48.90002 34846 ft 470 kts 58°
2026-05-06 22:14 4.38990 48.95467 34843 ft 470 kts 58°
2026-05-06 22:15 4.42545 49.00958 34844 ft 470 kts 58°
2026-05-06 22:15 4.46102 49.06454 34844 ft 470 kts 58°
2026-05-06 22:16 4.49652 49.11941 34843 ft 469 kts 58°
2026-05-06 22:16 4.53182 49.17397 34845 ft 469 kts 58°
2026-05-06 22:17 4.56730 49.22881 34844 ft 469 kts 58°
2026-05-06 22:17 4.60281 49.28372 34844 ft 469 kts 59°
2026-05-06 22:18 4.63826 49.33856 34840 ft 469 kts 58°
2026-05-06 22:18 4.67352 49.39310 34842 ft 469 kts 58°
2026-05-06 22:19 4.70898 49.44797 34841 ft 469 kts 58°
2026-05-06 22:19 4.74448 49.50291 34841 ft 469 kts 58°
2026-05-06 22:20 4.77992 49.55779 34843 ft 469 kts 58°
2026-05-06 22:20 4.81519 49.61239 34840 ft 469 kts 58°
2026-05-06 22:21 4.85063 49.66729 34841 ft 469 kts 58°
2026-05-06 22:21 4.88613 49.72227 34841 ft 469 kts 58°
2026-05-06 22:22 4.92151 49.77720 34849 ft 469 kts 59°
2026-05-06 22:22 4.95685 49.83223 34838 ft 469 kts 58°
2026-05-06 22:23 4.99204 49.88723 34839 ft 469 kts 57°
2026-05-06 22:23 5.02763 49.94154 34841 ft 469 kts 58°
2026-05-06 22:24 5.06271 49.99663 34845 ft 469 kts 59°
2026-05-06 22:24 5.09737 50.05196 34840 ft 469 kts 59°
2026-05-06 22:25 5.13182 50.10701 34841 ft 469 kts 59°
2026-05-06 22:25 5.16654 50.16235 34841 ft 469 kts 59°
2026-05-06 22:26 5.20131 50.21771 34843 ft 469 kts 59°
2026-05-06 22:26 5.23602 50.27297 34839 ft 468 kts 59°
2026-05-06 22:27 5.27075 50.32827 34841 ft 468 kts 59°
2026-05-06 22:27 5.30516 50.38309 34837 ft 468 kts 59°
2026-05-06 22:28 5.33982 50.43830 34840 ft 467 kts 59°
2026-05-06 22:28 5.37440 50.49342 34837 ft 467 kts 59°
2026-05-06 22:29 5.40900 50.54859 34841 ft 467 kts 59°
2026-05-06 22:29 5.44354 50.60366 34838 ft 466 kts 59°
2026-05-06 22:30 5.47788 50.65844 34841 ft 466 kts 59°
2026-05-06 22:30 5.51239 50.71350 34844 ft 466 kts 59°
2026-05-06 22:31 5.54694 50.76865 34841 ft 466 kts 59°
2026-05-06 22:31 5.58144 50.82372 34842 ft 466 kts 59°
2026-05-06 22:32 5.61576 50.87852 34840 ft 466 kts 59°
2026-05-06 22:32 5.65026 50.93363 34843 ft 466 kts 59°
2026-05-06 22:33 5.68482 50.98883 34844 ft 467 kts 59°
2026-05-06 22:33 5.71938 51.04406 34844 ft 467 kts 59°
2026-05-06 22:34 5.75368 51.09889 34844 ft 467 kts 59°
2026-05-06 22:34 5.78826 51.15419 34843 ft 467 kts 59°
2026-05-06 22:35 5.82283 51.20947 34844 ft 467 kts 59°
2026-05-06 22:35 5.85737 51.26473 34843 ft 468 kts 59°
2026-05-06 22:36 5.89174 51.31972 34844 ft 468 kts 59°
2026-05-06 22:36 5.92611 51.37512 34850 ft 468 kts 58°
2026-05-06 22:37 5.96062 51.43057 34844 ft 468 kts 58°
2026-05-06 22:37 5.99533 51.48581 34843 ft 468 kts 58°
2026-05-06 22:38 6.02978 51.54080 34844 ft 468 kts 58°
2026-05-06 22:38 6.06434 51.59614 34845 ft 468 kts 58°
2026-05-06 22:39 6.09890 51.65155 34839 ft 468 kts 58°
2026-05-06 22:39 6.13339 51.70687 34841 ft 467 kts 58°
2026-05-06 22:40 6.16790 51.76223 34843 ft 467 kts 58°
2026-05-06 22:40 6.20215 51.81718 34840 ft 467 kts 58°
2026-05-06 22:41 6.25375 51.89999 34839 ft 466 kts 58°
2026-05-06 22:42 6.28806 51.95509 34840 ft 465 kts 58°
2026-05-06 22:42 6.32214 52.00983 34840 ft 464 kts 58°
2026-05-06 22:43 6.35636 52.06479 34841 ft 464 kts 58°
2026-05-06 22:43 6.39057 52.11978 34839 ft 463 kts 58°
2026-05-06 22:44 6.42470 52.17464 34840 ft 463 kts 58°
2026-05-06 22:44 6.45861 52.22917 34837 ft 463 kts 58°
2026-05-06 22:45 6.49268 52.28398 34837 ft 463 kts 58°
2026-05-06 22:45 6.52679 52.33886 34840 ft 462 kts 58°
2026-05-06 22:46 6.56085 52.39368 34842 ft 462 kts 58°
2026-05-06 22:46 6.59494 52.44857 34839 ft 463 kts 58°
2026-05-06 22:47 6.62877 52.50305 34837 ft 463 kts 58°
2026-05-06 22:47 6.66287 52.55798 34840 ft 463 kts 58°
2026-05-06 22:48 6.69692 52.61287 34840 ft 463 kts 58°
2026-05-06 22:48 6.73104 52.66786 34840 ft 463 kts 58°
2026-05-06 22:49 6.76512 52.72282 34843 ft 463 kts 58°
2026-05-06 22:49 6.79903 52.77752 34838 ft 464 kts 58°
2026-05-06 22:50 6.83317 52.83261 34842 ft 464 kts 58°
2026-05-06 22:50 6.86727 52.88765 34841 ft 464 kts 58°
2026-05-06 22:51 6.90139 52.94275 34841 ft 464 kts 58°
2026-05-06 22:51 6.93531 52.99754 34841 ft 464 kts 58°
2026-05-06 22:52 6.96941 53.05263 34843 ft 464 kts 58°
2026-05-06 22:52 7.00354 53.10781 34839 ft 464 kts 58°
2026-05-06 22:53 7.03762 53.16291 34843 ft 464 kts 58°
2026-05-06 22:53 7.07152 53.21774 34842 ft 464 kts 58°
2026-05-06 22:54 7.10560 53.27287 34844 ft 464 kts 58°
2026-05-06 22:54 7.13971 53.32809 34841 ft 464 kts 58°
2026-05-06 22:55 7.17381 53.38331 34848 ft 464 kts 58°
2026-05-06 22:55 7.20764 53.43809 34841 ft 464 kts 58°
2026-05-06 22:56 7.24167 53.49324 34840 ft 464 kts 58°
2026-05-06 22:56 7.27572 53.54844 34846 ft 463 kts 58°
2026-05-06 22:57 7.30971 53.60355 34845 ft 463 kts 58°
2026-05-06 22:57 7.34350 53.65838 34845 ft 463 kts 58°
2026-05-06 22:58 7.37744 53.71350 34844 ft 463 kts 58°
2026-05-06 22:58 7.41142 53.76871 34840 ft 463 kts 58°
2026-05-06 22:59 7.44540 53.82393 34842 ft 463 kts 58°
2026-05-06 22:59 7.47932 53.87908 34844 ft 463 kts 58°
2026-05-06 23:00 7.51306 53.93396 34841 ft 463 kts 58°
2026-05-06 23:00 7.54697 53.98913 34847 ft 463 kts 58°
2026-05-06 23:01 7.58092 54.04439 34845 ft 463 kts 58°
2026-05-06 23:01 7.61483 54.09961 34844 ft 464 kts 58°
2026-05-06 23:02 7.64858 54.15458 34844 ft 464 kts 58°
2026-05-06 23:02 7.68253 54.20989 34844 ft 464 kts 58°
2026-05-06 23:03 7.71654 54.26532 34840 ft 465 kts 58°
2026-05-06 23:03 7.75053 54.32076 34843 ft 465 kts 58°
2026-05-06 23:04 7.78460 54.37632 34839 ft 466 kts 58°
2026-05-06 23:04 7.81846 54.43159 34843 ft 466 kts 58°
2026-05-06 23:05 7.85254 54.48722 34841 ft 467 kts 58°
2026-05-06 23:05 7.88668 54.54297 34843 ft 467 kts 59°
2026-05-06 23:06 7.92079 54.59869 34840 ft 467 kts 59°
2026-05-06 23:06 7.95489 54.65442 34837 ft 467 kts 59°
2026-05-06 23:07 7.98879 54.70985 34836 ft 467 kts 59°
2026-05-06 23:07 8.02285 54.76556 34839 ft 466 kts 59°
2026-05-06 23:08 8.05690 54.82128 34837 ft 466 kts 59°
2026-05-06 23:08 8.09086 54.87688 34839 ft 465 kts 59°
2026-05-06 23:09 8.12458 54.93211 34839 ft 465 kts 59°
2026-05-06 23:09 8.15845 54.98759 34837 ft 464 kts 59°
2026-05-06 23:10 8.19269 55.04284 34840 ft 464 kts 58°
2026-05-06 23:10 8.22748 55.09768 34841 ft 463 kts 57°
2026-05-06 23:11 8.26219 55.15240 34841 ft 463 kts 58°
2026-05-06 23:11 8.29658 55.20681 34841 ft 463 kts 58°
2026-05-06 23:12 8.33117 55.26167 34844 ft 463 kts 58°
2026-05-06 23:12 8.36572 55.31651 34840 ft 463 kts 58°
2026-05-06 23:13 8.40032 55.37144 34840 ft 463 kts 58°
2026-05-06 23:13 8.43468 55.42600 34845 ft 464 kts 58°
2026-05-06 23:14 8.46933 55.48105 34841 ft 464 kts 58°
2026-05-06 23:14 8.50398 55.53611 34840 ft 465 kts 58°
2026-05-06 23:15 8.53867 55.59127 34844 ft 465 kts 58°
2026-05-06 23:15 8.57335 55.64643 34841 ft 465 kts 58°
2026-05-06 23:16 8.60778 55.70122 34837 ft 465 kts 58°
2026-05-06 23:16 8.64249 55.75648 34840 ft 465 kts 58°
2026-05-06 23:17 8.67713 55.81165 34843 ft 465 kts 58°
2026-05-06 23:17 8.71180 55.86688 34838 ft 465 kts 58°
2026-05-06 23:18 8.74644 55.92208 34839 ft 464 kts 58°
2026-05-06 23:18 8.78076 55.97682 34838 ft 464 kts 58°
2026-05-06 23:19 8.81532 56.03195 34839 ft 464 kts 58°
2026-05-06 23:19 8.84981 56.08698 34838 ft 463 kts 58°
2026-05-06 23:20 8.88425 56.14197 34839 ft 463 kts 58°
2026-05-06 23:20 8.91849 56.19665 34839 ft 463 kts 58°
2026-05-06 23:21 8.95293 56.25169 34844 ft 463 kts 58°
2026-05-06 23:21 8.98731 56.30666 34843 ft 463 kts 58°
2026-05-06 23:22 9.02169 56.36163 34841 ft 463 kts 58°
2026-05-06 23:22 9.05586 56.41630 34843 ft 462 kts 58°
2026-05-06 23:23 9.09025 56.47135 34844 ft 462 kts 58°
2026-05-06 23:23 9.12461 56.52638 34842 ft 462 kts 58°
2026-05-06 23:24 9.15893 56.58138 34843 ft 463 kts 58°
2026-05-06 23:24 9.19331 56.63648 34841 ft 463 kts 58°
2026-05-06 23:25 9.22741 56.69117 34840 ft 463 kts 58°
2026-05-06 23:25 9.26179 56.74633 34846 ft 463 kts 58°
2026-05-06 23:26 9.29611 56.80147 34846 ft 463 kts 58°
2026-05-06 23:26 9.33047 56.85674 34844 ft 464 kts 58°
2026-05-06 23:27 9.36479 56.91197 34845 ft 464 kts 58°
2026-05-06 23:27 9.39894 56.96693 34844 ft 464 kts 58°
2026-05-06 23:28 9.43326 57.02221 34842 ft 464 kts 58°
2026-05-06 23:28 9.46760 57.07754 34845 ft 464 kts 58°
2026-05-06 23:29 9.50195 57.13291 34846 ft 464 kts 58°
2026-05-06 23:29 9.53603 57.18787 34843 ft 464 kts 58°
2026-05-06 23:30 9.57036 57.24325 34845 ft 464 kts 58°
2026-05-06 23:30 9.60462 57.29855 34847 ft 464 kts 58°
2026-05-06 23:31 9.63890 57.35391 34843 ft 463 kts 58°
2026-05-06 23:31 9.67316 57.40926 34845 ft 463 kts 58°
2026-05-06 23:32 9.70710 57.46412 34843 ft 463 kts 58°
2026-05-06 23:32 9.74124 57.51933 34843 ft 462 kts 58°
2026-05-06 23:33 9.77539 57.57457 34840 ft 462 kts 58°
2026-05-06 23:33 9.80945 57.62970 34843 ft 461 kts 58°
2026-05-06 23:34 9.84327 57.68453 34842 ft 461 kts 59°
2026-05-06 23:34 9.87697 57.73984 34843 ft 461 kts 57°
2026-05-06 23:35 9.91133 57.79486 34845 ft 461 kts 58°
2026-05-06 23:35 9.94543 57.84999 34844 ft 462 kts 58°
2026-05-06 23:36 9.97928 57.90494 34845 ft 462 kts 58°
2026-05-06 23:36 10.01333 57.96025 34845 ft 463 kts 58°
2026-05-06 23:37 10.04747 58.01569 34845 ft 463 kts 58°
2026-05-06 23:37 10.08157 58.07111 34847 ft 463 kts 58°
2026-05-06 23:38 10.11550 58.12626 34848 ft 464 kts 58°
2026-05-06 23:38 10.14965 58.18182 34846 ft 464 kts 58°
2026-05-06 23:39 10.18375 58.23731 34850 ft 464 kts 58°
2026-05-06 23:39 10.21846 58.29240 34845 ft 463 kts 57°
2026-05-06 23:40 10.25352 58.34685 34847 ft 463 kts 57°
2026-05-06 23:40 10.28870 58.40155 34846 ft 463 kts 57°
2026-05-06 23:41 10.32367 58.45642 34847 ft 462 kts 57°
2026-05-06 23:41 10.35948 58.51056 34838 ft 462 kts 57°
2026-05-06 23:42 10.39389 58.56517 34848 ft 462 kts 58°
2026-05-06 23:42 10.42845 58.62008 34846 ft 462 kts 57°
2026-05-06 23:43 10.46326 58.67492 34847 ft 462 kts 57°
2026-05-06 23:43 10.49813 58.72964 34847 ft 462 kts 57°
2026-05-06 23:44 10.53306 58.78443 34847 ft 462 kts 57°
2026-05-06 23:44 10.56773 58.83885 34847 ft 462 kts 57°
2026-05-06 23:45 10.60261 58.89365 34847 ft 462 kts 57°
2026-05-06 23:45 10.63754 58.94855 34847 ft 462 kts 57°
2026-05-06 23:46 10.67242 59.00340 34846 ft 462 kts 57°
2026-05-06 23:46 10.70741 59.05776 34855 ft 462 kts 57°
2026-05-06 23:47 10.74130 59.11336 34842 ft 462 kts 57°
2026-05-06 23:47 10.77640 59.16809 34852 ft 462 kts 57°
2026-05-06 23:48 10.81164 59.22286 34850 ft 463 kts 57°
2026-05-06 23:48 10.84662 59.27773 34850 ft 463 kts 57°
2026-05-06 23:49 10.88130 59.33241 34849 ft 463 kts 57°
2026-05-06 23:49 10.91615 59.38745 34850 ft 463 kts 57°
2026-05-06 23:50 10.95099 59.44248 34849 ft 463 kts 57°
2026-05-06 23:50 11.00326 59.52506 34849 ft 463 kts 57°
2026-05-06 23:51 11.03787 59.57980 34849 ft 463 kts 57°
2026-05-06 23:51 11.07265 59.63481 34848 ft 462 kts 57°
2026-05-06 23:52 11.10746 59.68990 34849 ft 462 kts 57°
2026-05-06 23:52 11.14224 59.74499 34849 ft 462 kts 57°
2026-05-06 23:53 11.17673 59.79964 34850 ft 462 kts 57°
2026-05-06 23:53 11.21148 59.85472 34849 ft 462 kts 57°
2026-05-06 23:54 11.24616 59.90974 34851 ft 462 kts 57°
2026-05-06 23:54 11.28082 59.96475 34848 ft 462 kts 57°
2026-05-06 23:55 11.31537 60.01942 34849 ft 462 kts 57°
2026-05-06 23:55 11.35071 60.07397 34850 ft 461 kts 57°
2026-05-06 23:56 11.38621 60.12842 34849 ft 461 kts 57°
2026-05-06 23:56 11.42166 60.18299 34849 ft 461 kts 57°
2026-05-06 23:57 11.45703 60.23758 34848 ft 461 kts 57°
2026-05-06 23:57 11.49209 60.29175 34850 ft 461 kts 57°
2026-05-06 23:58 11.52741 60.34638 34850 ft 461 kts 57°
2026-05-06 23:58 11.56268 60.40094 34849 ft 461 kts 57°
2026-05-06 23:59 11.59798 60.45559 34850 ft 461 kts 57°
2026-05-06 23:59 11.63322 60.51017 34850 ft 461 kts 57°
2026-05-07 00:00 11.66826 60.56446 34852 ft 461 kts 57°
2026-05-07 00:00 11.69775 60.61017 34852 ft 461 kts 57°
2026-05-07 00:01 11.73870 60.67370 34851 ft 461 kts 57°
2026-05-07 00:01 11.77387 60.72828 34853 ft 461 kts 57°
2026-05-07 00:02 11.80904 60.78291 34850 ft 460 kts 57°
2026-05-07 00:02 11.84399 60.83720 34845 ft 460 kts 57°
2026-05-07 00:03 11.87912 60.89181 34846 ft 460 kts 57°
2026-05-07 00:03 11.91427 60.94649 34847 ft 460 kts 57°
2026-05-07 00:04 11.94938 61.00114 34847 ft 461 kts 57°
2026-05-07 00:04 11.98449 61.05582 34847 ft 461 kts 57°
2026-05-07 00:05 12.01941 61.11022 34846 ft 461 kts 57°
2026-05-07 00:05 12.05451 61.16495 34847 ft 461 kts 57°
2026-05-07 00:06 12.08965 61.21976 34847 ft 461 kts 57°
2026-05-07 00:06 12.12477 61.27458 34847 ft 461 kts 57°
2026-05-07 00:07 12.15961 61.32899 34846 ft 461 kts 57°
2026-05-07 00:07 12.19472 61.38384 34845 ft 461 kts 57°
2026-05-07 00:08 12.22975 61.43862 34847 ft 461 kts 57°
2026-05-07 00:08 12.26477 61.49354 34840 ft 461 kts 56°
2026-05-07 00:09 12.30001 61.54774 34843 ft 461 kts 57°
2026-05-07 00:09 12.33482 61.60269 34848 ft 461 kts 57°
2026-05-07 00:10 12.36970 61.65767 34846 ft 461 kts 57°
2026-05-07 00:10 12.40473 61.71268 34847 ft 461 kts 57°
2026-05-07 00:11 12.43976 61.76764 34847 ft 462 kts 57°
2026-05-07 00:11 12.47462 61.82235 34847 ft 462 kts 57°
2026-05-07 00:12 12.50971 61.87745 34847 ft 462 kts 57°
2026-05-07 00:12 12.54474 61.93251 34846 ft 462 kts 57°
2026-05-07 00:13 12.57982 61.98767 34847 ft 462 kts 57°
2026-05-07 00:13 12.61460 62.04241 34844 ft 462 kts 57°
2026-05-07 00:14 12.64961 62.09753 34846 ft 462 kts 57°
2026-05-07 00:14 12.68465 62.15273 34847 ft 462 kts 57°
2026-05-07 00:15 12.71966 62.20791 34847 ft 462 kts 57°
2026-05-07 00:15 12.75447 62.26282 34846 ft 462 kts 57°
2026-05-07 00:16 12.78947 62.31806 34847 ft 463 kts 57°
2026-05-07 00:16 12.82451 62.37340 34847 ft 463 kts 57°
2026-05-07 00:17 12.85952 62.42872 34847 ft 463 kts 57°
2026-05-07 00:17 12.89452 62.48405 34846 ft 463 kts 57°
2026-05-07 00:18 12.92931 62.53911 34847 ft 463 kts 57°
2026-05-07 00:18 12.96429 62.59447 34847 ft 463 kts 57°
2026-05-07 00:19 12.99930 62.64993 34847 ft 463 kts 57°
2026-05-07 00:19 13.03414 62.70549 34846 ft 463 kts 57°
2026-05-07 00:20 13.06875 62.76101 34840 ft 463 kts 58°
2026-05-07 00:20 13.10353 62.81608 34849 ft 463 kts 57°
2026-05-07 00:21 13.13872 62.87135 34848 ft 463 kts 57°
2026-05-07 00:21 13.17379 62.92683 34846 ft 463 kts 58°
2026-05-07 00:22 13.20871 62.98233 34847 ft 463 kts 58°
2026-05-07 00:22 13.24342 63.03758 34847 ft 463 kts 58°
2026-05-07 00:23 13.27833 63.09317 34847 ft 463 kts 58°
2026-05-07 00:23 13.31322 63.14875 34846 ft 463 kts 58°
2026-05-07 00:24 13.34815 63.20443 34847 ft 463 kts 58°
2026-05-07 00:24 13.38279 63.25969 34847 ft 464 kts 58°
2026-05-07 00:25 13.41768 63.31537 34844 ft 464 kts 58°
2026-05-07 00:25 13.44665 63.36173 34844 ft 464 kts 58°
2026-05-07 00:26 13.48159 63.41750 34848 ft 464 kts 58°
2026-05-07 00:26 13.52215 63.48233 34848 ft 464 kts 58°
2026-05-07 00:27 13.55707 63.53823 34846 ft 465 kts 58°
2026-05-07 00:27 13.58605 63.58464 34846 ft 465 kts 58°
2026-05-07 00:28 13.62107 63.64054 34846 ft 465 kts 58°
2026-05-07 00:28 13.66183 63.70532 34846 ft 465 kts 58°
2026-05-07 00:29 13.69694 63.76116 34846 ft 465 kts 58°
2026-05-07 00:30 13.76112 63.86345 34848 ft 465 kts 58°
2026-05-07 00:30 13.79617 63.91938 34849 ft 465 kts 58°
2026-05-07 00:31 13.83114 63.97521 34849 ft 464 kts 58°
2026-05-07 00:31 13.86586 64.03068 34849 ft 464 kts 58°
2026-05-07 00:32 13.90084 64.08661 34849 ft 464 kts 58°
2026-05-07 00:32 13.93581 64.14256 34850 ft 464 kts 58°
2026-05-07 00:33 13.97073 64.19845 34848 ft 464 kts 58°
2026-05-07 00:33 14.00568 64.25444 34849 ft 464 kts 58°
2026-05-07 00:34 14.04034 64.31000 34850 ft 465 kts 58°
2026-05-07 00:34 14.07526 64.36602 34854 ft 465 kts 58°
2026-05-07 00:35 14.11015 64.42202 34847 ft 465 kts 58°
2026-05-07 00:35 14.14509 64.47814 34850 ft 465 kts 58°
2026-05-07 00:36 14.17998 64.53422 34850 ft 465 kts 58°
2026-05-07 00:36 14.21465 64.59007 34844 ft 465 kts 58°
2026-05-07 00:37 14.24894 64.64660 34850 ft 466 kts 58°
2026-05-07 00:37 14.28425 64.70259 34850 ft 466 kts 57°
2026-05-07 00:38 14.31944 64.75880 34850 ft 466 kts 58°
2026-05-07 00:38 14.35418 64.81474 34850 ft 467 kts 58°
2026-05-07 00:39 14.38915 64.87122 34850 ft 467 kts 58°
2026-05-07 00:39 14.42409 64.92768 34849 ft 467 kts 58°
2026-05-07 00:40 14.45908 64.98423 34847 ft 467 kts 58°
2026-05-07 00:40 14.49378 65.04037 34849 ft 467 kts 58°
2026-05-07 00:41 14.52873 65.09693 34852 ft 467 kts 58°
2026-05-07 00:41 14.56369 65.15357 34849 ft 467 kts 58°
2026-05-07 00:42 14.59858 65.21015 34848 ft 468 kts 58°
2026-05-07 00:42 14.63337 65.26685 34850 ft 468 kts 58°
2026-05-07 00:43 14.66793 65.32330 34850 ft 468 kts 58°
2026-05-07 00:43 14.70266 65.38008 34848 ft 468 kts 58°
2026-05-07 00:44 14.73745 65.43695 34846 ft 468 kts 58°
2026-05-07 00:44 14.77220 65.49380 34847 ft 468 kts 58°
2026-05-07 00:45 14.80670 65.55029 34846 ft 468 kts 58°
2026-05-07 00:45 14.84148 65.60726 34844 ft 468 kts 58°
2026-05-07 00:46 14.87619 65.66418 34847 ft 468 kts 58°
2026-05-07 00:46 14.91092 65.72116 34847 ft 468 kts 58°
2026-05-07 00:47 14.94544 65.77783 34847 ft 468 kts 58°
2026-05-07 00:47 14.98013 65.83484 34847 ft 468 kts 58°
2026-05-07 00:48 15.01486 65.89194 34843 ft 469 kts 58°
2026-05-07 00:48 15.04953 65.94901 34847 ft 469 kts 58°
2026-05-07 00:49 15.08422 66.00612 34849 ft 469 kts 58°
2026-05-07 00:49 15.11873 66.06300 34848 ft 469 kts 58°
2026-05-07 00:50 15.15343 66.12022 34847 ft 470 kts 58°
2026-05-07 00:50 15.18818 66.17759 34848 ft 470 kts 58°
2026-05-07 00:51 15.22289 66.23491 34847 ft 470 kts 58°
2026-05-07 00:51 15.25742 66.29198 34845 ft 470 kts 58°
2026-05-07 00:52 15.29213 66.34941 34848 ft 471 kts 58°
2026-05-07 00:52 15.32685 66.40687 34844 ft 471 kts 58°
2026-05-07 00:53 15.36159 66.46444 34844 ft 471 kts 58°
2026-05-07 00:53 15.39607 66.52160 34838 ft 471 kts 58°
2026-05-07 00:54 15.43080 66.57923 34837 ft 472 kts 58°
2026-05-07 00:54 15.46554 66.63691 34843 ft 472 kts 58°
2026-05-07 00:55 15.50034 66.69474 34843 ft 473 kts 58°
2026-05-07 00:55 15.53514 66.75262 34843 ft 474 kts 58°
2026-05-07 00:56 15.56977 66.81027 34843 ft 474 kts 58°
2026-05-07 00:56 15.60487 66.86815 34841 ft 474 kts 57°
2026-05-07 00:57 15.64073 66.92566 34841 ft 475 kts 57°
2026-05-07 00:57 15.67662 66.98310 34844 ft 475 kts 57°
2026-05-07 00:58 15.71216 67.04024 34837 ft 475 kts 57°
2026-05-07 00:58 15.74791 67.09789 34838 ft 475 kts 57°
2026-05-07 00:59 15.80143 67.18431 34841 ft 474 kts 57°
2026-05-07 01:00 15.83686 67.24158 34841 ft 474 kts 57°
2026-05-07 01:00 15.87250 67.29922 34846 ft 474 kts 57°
2026-05-07 01:01 15.90810 67.35684 34848 ft 474 kts 57°
2026-05-07 01:01 15.94374 67.41457 34841 ft 475 kts 57°
2026-05-07 01:02 15.97912 67.47193 34842 ft 475 kts 57°
2026-05-07 01:02 16.01476 67.52975 34840 ft 475 kts 57°
2026-05-07 01:03 16.05037 67.58757 34839 ft 475 kts 57°
2026-05-07 01:03 16.08604 67.64553 34841 ft 475 kts 57°
2026-05-07 01:04 16.12164 67.70343 34835 ft 476 kts 57°
2026-05-07 01:04 16.15704 67.76104 34837 ft 476 kts 57°
2026-05-07 01:05 16.19268 67.81911 34839 ft 476 kts 57°
2026-05-07 01:05 16.22829 67.87718 34837 ft 476 kts 57°
2026-05-07 01:06 16.26389 67.93525 34838 ft 476 kts 57°
2026-05-07 01:06 16.29860 67.99352 34835 ft 476 kts 58°
2026-05-07 01:07 16.33269 68.05260 34835 ft 476 kts 58°
2026-05-07 01:07 16.36676 68.11172 34834 ft 476 kts 58°
2026-05-07 01:08 16.40097 68.17083 34835 ft 476 kts 58°
2026-05-07 01:08 16.43499 68.22950 34832 ft 476 kts 58°
2026-05-07 01:09 16.46919 68.28852 34839 ft 476 kts 58°
2026-05-07 01:09 16.50341 68.34763 34834 ft 476 kts 58°
2026-05-07 01:10 16.53763 68.40681 34836 ft 476 kts 58°
2026-05-07 01:10 16.57158 68.46556 34836 ft 477 kts 58°
2026-05-07 01:11 16.60578 68.52480 34833 ft 477 kts 58°
2026-05-07 01:11 16.63994 68.58401 34836 ft 477 kts 58°
2026-05-07 01:12 16.67412 68.64331 34834 ft 477 kts 58°
2026-05-07 01:12 16.70801 68.70217 34834 ft 477 kts 58°
2026-05-07 01:13 16.74215 68.76151 34837 ft 477 kts 58°
2026-05-07 01:13 16.77623 68.82078 34835 ft 477 kts 58°
2026-05-07 01:14 16.81035 68.88019 34832 ft 477 kts 59°
2026-05-07 01:14 16.84443 68.93958 34835 ft 477 kts 59°
2026-05-07 01:15 16.87824 68.99853 34834 ft 477 kts 59°
2026-05-07 01:15 16.91229 69.05797 34835 ft 477 kts 59°
2026-05-07 01:16 16.94632 69.11743 34834 ft 477 kts 59°
2026-05-07 01:16 16.98029 69.17683 34838 ft 477 kts 59°
2026-05-07 01:17 17.01468 69.23607 34827 ft 477 kts 60°
2026-05-07 01:17 17.04776 69.29549 34825 ft 476 kts 59°
2026-05-07 01:18 17.08179 69.35493 34838 ft 476 kts 59°
2026-05-07 01:18 17.11579 69.41430 34836 ft 476 kts 59°
2026-05-07 01:19 17.14967 69.47377 34834 ft 476 kts 59°
2026-05-07 01:19 17.18334 69.53298 34835 ft 476 kts 59°
2026-05-07 01:20 17.21756 69.59229 34831 ft 477 kts 58°
2026-05-07 01:20 17.25251 69.65129 34831 ft 477 kts 58°
2026-05-07 01:21 17.28748 69.71030 34829 ft 477 kts 58°
2026-05-07 01:21 17.32202 69.76888 34832 ft 477 kts 58°
2026-05-07 01:22 17.35682 69.82807 34833 ft 477 kts 58°
2026-05-07 01:22 17.39154 69.88735 34842 ft 477 kts 59°
2026-05-07 01:23 17.42615 69.94659 34830 ft 477 kts 57°
2026-05-07 01:23 17.46082 70.00539 34834 ft 477 kts 58°
2026-05-07 01:24 17.49557 70.06458 34831 ft 477 kts 58°
2026-05-07 01:24 17.53029 70.12392 34833 ft 477 kts 58°
2026-05-07 01:25 17.56494 70.18318 34835 ft 477 kts 58°
2026-05-07 01:25 17.59938 70.24213 34834 ft 477 kts 58°
2026-05-07 01:26 17.63399 70.30142 34835 ft 477 kts 58°
2026-05-07 01:26 17.66863 70.36081 34834 ft 477 kts 58°
2026-05-07 01:27 17.70320 70.42015 34838 ft 477 kts 58°
2026-05-07 01:27 17.73782 70.47963 34833 ft 477 kts 58°
2026-05-07 01:28 17.77238 70.53905 34834 ft 477 kts 58°
2026-05-07 01:28 17.80544 70.59899 34830 ft 478 kts 63°
2026-05-07 01:29 17.83281 70.66249 34832 ft 478 kts 66°
2026-05-07 01:29 17.85917 70.72662 34834 ft 478 kts 66°
2026-05-07 01:30 17.88591 70.79050 34835 ft 478 kts 65°
2026-05-07 01:30 17.91285 70.85389 34836 ft 478 kts 65°
2026-05-07 01:31 17.94003 70.91759 34834 ft 478 kts 65°
2026-05-07 01:31 17.96723 70.98143 34833 ft 479 kts 65°
2026-05-07 01:32 17.99437 71.04524 34830 ft 479 kts 65°
2026-05-07 01:32 18.02142 71.10893 34395 ft 486 kts 65°
2026-05-07 01:32 18.03519 71.14138 33773 ft 485 kts 65°
2026-05-07 01:33 18.04891 71.17371 33042 ft 486 kts 65°
2026-05-07 01:33 18.06262 71.20617 32297 ft 486 kts 65°
2026-05-07 01:33 18.07605 71.23880 31549 ft 486 kts 66°
2026-05-07 01:33 18.08934 71.27144 30971 ft 483 kts 65°
2026-05-07 01:34 18.10297 71.30348 30393 ft 480 kts 64°
2026-05-07 01:34 18.11669 71.33528 29862 ft 475 kts 64°
2026-05-07 01:34 18.13014 71.36640 29244 ft 471 kts 64°
2026-05-07 01:34 18.14355 71.39765 28669 ft 466 kts 64°
2026-05-07 01:35 18.15670 71.42854 28122 ft 461 kts 64°
2026-05-07 01:35 18.16968 71.45921 27583 ft 457 kts 64°
2026-05-07 01:35 18.18250 71.48960 27052 ft 452 kts 64°
2026-05-07 01:35 18.19518 71.51971 26529 ft 448 kts 64°
2026-05-07 01:36 18.20775 71.54956 26014 ft 444 kts 63°
2026-05-07 01:36 18.22019 71.57913 25465 ft 442 kts 63°
2026-05-07 01:36 18.23244 71.60824 24939 ft 439 kts 63°
2026-05-07 01:36 18.24478 71.63758 24413 ft 437 kts 63°
2026-05-07 01:37 18.25703 71.66669 23891 ft 435 kts 63°
2026-05-07 01:37 18.26925 71.69576 23361 ft 433 kts 63°
2026-05-07 01:37 18.28141 71.72470 22757 ft 431 kts 63°
2026-05-07 01:37 18.29347 71.75342 22222 ft 427 kts 63°
2026-05-07 01:38 18.30541 71.78186 21705 ft 423 kts 63°
2026-05-07 01:38 18.31720 71.80997 21195 ft 419 kts 63°
2026-05-07 01:38 18.32875 71.83753 20702 ft 415 kts 63°
2026-05-07 01:38 18.34036 71.86522 20199 ft 412 kts 64°
2026-05-07 01:39 18.35187 71.89269 19709 ft 408 kts 64°
2026-05-07 01:39 18.36326 71.91990 19215 ft 405 kts 64°
2026-05-07 01:39 18.37460 71.94700 18724 ft 403 kts 64°
2026-05-07 01:39 18.38581 71.97380 18451 ft 394 kts 64°
2026-05-07 01:40 18.39671 71.99988 18235 ft 384 kts 64°
2026-05-07 01:40 18.40727 72.02517 18075 ft 373 kts 64°
2026-05-07 01:40 18.41744 72.04951 17901 ft 363 kts 64°
2026-05-07 01:40 18.42790 72.07327 17720 ft 352 kts 58°
2026-05-07 01:41 18.44301 72.09290 17484 ft 342 kts 45°
2026-05-07 01:41 18.45933 72.11090 17116 ft 339 kts 44°
2026-05-07 01:41 18.47564 72.12884 16764 ft 337 kts 44°
2026-05-07 01:41 18.49175 72.14665 16426 ft 334 kts 45°
2026-05-07 01:42 18.50766 72.16435 16082 ft 332 kts 45°
2026-05-07 01:42 18.52336 72.18213 15734 ft 330 kts 47°
2026-05-07 01:42 18.53885 72.19994 15400 ft 328 kts 46°
2026-05-07 01:42 18.55432 72.21706 15063 ft 327 kts 45°
2026-05-07 01:43 18.56996 72.23417 14717 ft 326 kts 47°
2026-05-07 01:43 18.58543 72.25161 14384 ft 325 kts 48°
2026-05-07 01:43 18.60078 72.26898 14023 ft 324 kts 47°
2026-05-07 01:43 18.61626 72.28620 13692 ft 323 kts 48°
2026-05-07 01:44 18.63157 72.30351 13315 ft 322 kts 49°
2026-05-07 01:44 18.64678 72.32078 12964 ft 320 kts 49°
2026-05-07 01:44 18.66188 72.33792 12615 ft 318 kts 49°
2026-05-07 01:44 18.67670 72.35472 12283 ft 316 kts 49°
2026-05-07 01:45 18.69165 72.37166 11950 ft 314 kts 49°
2026-05-07 01:45 18.70652 72.38850 11618 ft 313 kts 49°
2026-05-07 01:45 18.72131 72.40524 11286 ft 311 kts 49°
2026-05-07 01:45 18.73604 72.42192 10958 ft 309 kts 49°
2026-05-07 01:46 18.75065 72.43846 10634 ft 308 kts 49°
2026-05-07 01:46 18.76524 72.45498 10311 ft 307 kts 49°
2026-05-07 01:46 18.77975 72.47142 10048 ft 303 kts 49°
2026-05-07 01:46 18.79397 72.48752 9882 ft 296 kts 50°
2026-05-07 01:47 18.80790 72.50330 9651 ft 293 kts 50°
2026-05-07 01:47 18.82176 72.51902 9330 ft 292 kts 49°
2026-05-07 01:47 18.83534 72.53443 9034 ft 290 kts 49°
2026-05-07 01:47 18.84904 72.54998 8738 ft 288 kts 49°
2026-05-07 01:48 18.86265 72.56542 8442 ft 287 kts 49°
2026-05-07 01:48 18.87622 72.58079 8147 ft 285 kts 48°
2026-05-07 01:48 18.88948 72.59606 7983 ft 279 kts 49°
2026-05-07 01:48 18.90173 72.61153 7832 ft 271 kts 63°
2026-05-07 01:49 18.90673 72.63003 7759 ft 259 kts 86°
2026-05-07 01:49 18.90781 72.64894 7695 ft 257 kts 88°
2026-05-07 01:49 18.90854 72.66781 7623 ft 259 kts 88°
2026-05-07 01:49 18.90921 72.68669 7557 ft 262 kts 88°
2026-05-07 01:50 18.90990 72.70603 7480 ft 265 kts 88°
2026-05-07 01:50 18.91062 72.72548 7395 ft 265 kts 88°
2026-05-07 01:50 18.91135 72.74492 7323 ft 265 kts 88°
2026-05-07 01:50 18.91210 72.76433 7244 ft 264 kts 88°
2026-05-07 01:51 18.91285 72.78368 7170 ft 264 kts 87°
2026-05-07 01:51 18.91361 72.80307 7096 ft 264 kts 87°
2026-05-07 01:51 18.91438 72.82246 7022 ft 264 kts 87°
2026-05-07 01:51 18.91514 72.84177 6948 ft 264 kts 87°
2026-05-07 01:52 18.91589 72.86088 6878 ft 264 kts 87°
2026-05-07 01:52 18.91666 72.88026 6794 ft 264 kts 87°
2026-05-07 01:52 18.91742 72.89961 6727 ft 264 kts 87°
2026-05-07 01:52 18.91818 72.91901 6650 ft 264 kts 86°
2026-05-07 01:53 18.91894 72.93838 6579 ft 264 kts 86°
2026-05-07 01:53 18.91971 72.95780 6516 ft 264 kts 87°
2026-05-07 01:53 18.92046 72.97719 6446 ft 264 kts 87°
2026-05-07 01:53 18.92122 72.99657 6368 ft 264 kts 87°
2026-05-07 01:54 18.92197 73.01587 6292 ft 263 kts 87°
2026-05-07 01:54 18.92271 73.03491 6252 ft 261 kts 87°
2026-05-07 01:54 18.92345 73.05396 6249 ft 258 kts 87°
2026-05-07 01:54 18.92417 73.07272 6230 ft 255 kts 87°
2026-05-07 01:55 18.92489 73.09148 6184 ft 255 kts 87°
2026-05-07 01:55 18.92758 73.10988 6089 ft 254 kts 65°
2026-05-07 01:55 18.93811 73.12398 6042 ft 237 kts 34°
2026-05-07 01:55 18.95274 73.13037 5795 ft 224 kts
2026-05-07 01:56 18.96781 73.13003 5576 ft 212 kts 347°
2026-05-07 01:56 18.98108 73.12469 5357 ft 205 kts 334°
2026-05-07 01:56 18.99382 73.11816 5126 ft 203 kts 334°
2026-05-07 01:56 19.00647 73.11166 4913 ft 201 kts 334°
2026-05-07 01:57 19.01905 73.10521 4686 ft 200 kts 334°
2026-05-07 01:57 19.03159 73.09888 4472 ft 199 kts 334°
2026-05-07 01:57 19.04407 73.09257 4242 ft 198 kts 334°
2026-05-07 01:57 19.05624 73.08614 4035 ft 194 kts 334°
2026-05-07 01:58 19.06811 73.08014 3809 ft 184 kts 335°
2026-05-07 01:58 19.07924 73.07445 3601 ft 176 kts 335°
2026-05-07 01:58 19.08817 73.06619 3337 ft 172 kts 299°
2026-05-07 01:58 19.08984 73.05371 3104 ft 175 kts 269°
2026-05-07 01:59 19.09067 73.04067 2890 ft 180 kts 279°
2026-05-07 01:59 19.09119 73.02757 2670 ft 178 kts 271°
2026-05-07 01:59 19.09098 73.01473 2453 ft 173 kts 272°
2026-05-07 01:59 19.09070 73.00224 2234 ft 166 kts 271°
2026-05-07 02:00 19.09047 72.99049 2046 ft 157 kts 271°
2026-05-07 02:00 19.09030 72.97897 1856 ft 156 kts 271°
2026-05-07 02:00 19.09014 72.96758 1639 ft 153 kts 270°
2026-05-07 02:00 19.08994 72.95640 1447 ft 155 kts 271°
2026-05-07 02:01 19.08965 72.94497 1232 ft 155 kts 271°
2026-05-07 02:01 19.08961 72.93361 1040 ft 156 kts 271°
2026-05-07 02:01 19.08948 72.92211 859 ft 157 kts 271°
2026-05-07 02:01 19.08932 72.91054 672 ft 158 kts 270°
2026-05-07 02:02 19.08915 72.89891 468 ft 158 kts 270°
2026-05-07 02:02 19.08896 72.88705 289 ft 162 kts 270°
2026-05-07 02:02 19.08880 72.87509 101 ft 162 kts 270°
2026-05-07 02:02 19.08869 72.86374 47 ft 143 kts 270°
2026-05-07 02:03 19.08853 72.85508 49 ft 87 kts 269°
2026-05-07 02:03 19.08850 72.85197 49 ft 11 kts 270°
2026-05-07 02:03 19.08919 72.85122 49 ft 15 kts 351°
2026-05-07 02:03 19.09001 72.85133 48 ft 12 kts 30°
2026-05-07 02:04 19.09021 72.85211 48 ft 11 kts 89°
2026-05-07 02:04 19.09021 72.85293 48 ft 11 kts 90°
2026-05-07 02:04 19.09022 72.85373 48 ft 11 kts 89°
2026-05-07 02:04 19.09024 72.85451 48 ft 10 kts 89°
2026-05-07 02:05 19.09025 72.85526 48 ft 10 kts 89°
2026-05-07 02:05 19.09027 72.85599 48 ft 10 kts 89°
2026-05-07 02:05 19.09027 72.85671 48 ft 10 kts 90°
2026-05-07 02:05 19.09027 72.85740 48 ft 9 kts 87°
2026-05-07 02:06 19.09030 72.85814 48 ft 11 kts 89°
2026-05-07 02:06 19.09031 72.85910 48 ft 15 kts 89°
2026-05-07 02:06 19.09033 72.86026 47 ft 15 kts 89°
2026-05-07 02:06 19.09034 72.86143 47 ft 17 kts 89°
2026-05-07 02:07 19.09035 72.86252 47 ft 11 kts 89°
2026-05-07 02:07 19.09131 72.86422 45 ft 18 kts 49°
2026-05-07 02:07 19.09207 72.86514 48 ft 15 kts 49°
2026-05-07 02:08 19.09284 72.86606 48 ft 18 kts 49°
2026-05-07 02:08 19.09360 72.86698 48 ft 18 kts 49°
2026-05-07 02:08 19.09421 72.86779 48 ft 13 kts 68°
2026-05-07 02:08 19.09422 72.86877 48 ft 15 kts 63°
2026-05-07 02:09 19.09492 72.86964 48 ft 15 kts 48°
2026-05-07 02:09 19.09554 72.87039 48 ft 10 kts 47°
2026-05-07 02:09 19.09602 72.87090 48 ft 10 kts 44°
2026-05-07 02:09 19.09625 72.87128 48 ft 4 kts 99°
2026-05-07 02:10 19.09601 72.87152 45 ft 5 kts 146°
2026-05-07 02:10 19.09579 72.87167 48 ft 2 kts 146°
2026-05-07 02:10 19.09566 72.87177 48 ft 2 kts 145°
2026-05-07 02:10 19.09564 72.87179 48 ft 0 kts 145°